This demonstration page uses our WeatherBlox Daily Observations layout. Learn more.

Left ArrowRight Arrow

30.21309, -93.2044

Hourly Observations for December 4, 2022

Temp ( °F °C ) Dew Point ( °F °C ) Humidity (%) Winds ( mph kmh ) Pressure ( in mb ) Visibility ( mi km ) Precip ( " mm )
12:15 am 00:15 Cloudy 66 18.9 63 17.1 89 89 ENE 5 7 30.28 1025 10 16 0.00 0.00
12:35 am 00:35 Cloudy 66 18.7 62 16.9 89 89 NE 7 11 30.27 1025 10 16 0.00 0.00
12:55 am 00:55 Cloudy 65 18.3 61 16.3 88 88 NE 7 11 30.27 1025 10 16 0.00 0.00
1:15 am 01:15 Cloudy 64 17.9 60 15.4 85 85 ENE 10 17 30.27 1025 10 16 0.00 0.00
1:35 am 01:35 Cloudy 64 17.5 59 15.2 86 86 ENE 8 13 30.26 1025 10 16 0.00 0.00
1:55 am 01:55 Mostly Cloudy 63 17.2 59 15.1 87 87 ENE 6 9 30.26 1025 10 16 0.00 0.00
2:15 am 02:15 Mostly Cloudy 62 16.9 59 15 89 89 ENE 5 7 30.25 1024 10 16 0.00 0.00
2:35 am 02:35 Cloudy 63 17 59 15.1 89 89 NE 7 11 30.26 1025 10 16 0.00 0.00
2:55 am 02:55 Cloudy 63 17 59 15.1 89 89 ENE 7 11 30.26 1025 10 16 0.00 0.00
3:15 am 03:15 Cloudy 63 17.1 59 15.1 88 88 NE 6 9 30.25 1024 10 16 0.00 0.00
3:35 am 03:35 Cloudy 63 17.1 59 15.2 89 89 NE 6 9 30.25 1024 10 16 0.00 0.00
3:55 am 03:55 Cloudy 63 17.1 60 15.3 89 89 NNE 7 11 30.25 1024 10 16 0.00 0.00
4:15 am 04:15 Cloudy 63 17 59 15.2 89 89 NE 7 11 30.25 1024 10 16 0.00 0.00
4:35 am 04:35 Cloudy 62 16.6 58 14.6 88 88 NE 7 11 30.25 1024 10 16 0.00 0.00
4:55 am 04:55 Cloudy 61 16.1 56 13.6 85 85 NNE 8 13 30.25 1024 10 16 0.00 0.00
5:15 am 05:15 Cloudy 61 15.9 56 13.3 85 85 NE 8 13 30.25 1024 10 16 0.00 0.00
5:35 am 05:35 Cloudy 60 15.7 55 13 84 84 ENE 9 15 30.25 1024 10 16 0.00 0.00
6:00 am 06:00 Cloudy 61 16 55 13 82 82 NE 7 11 30.25 1024 10 16 0.00 0.00
6:48 am 06:48 Cloudy 59 15 54 12 82 82 NE 7 11 30.26 1025 10 16 0.00 0.00
7:53 am 07:53 Cloudy 59 15 54 12 82 82 NE 5 7 30.28 1025 10 16 0.00 0.00
8:49 am 08:49 Cloudy 59 15 55 13 88 88 N 5 7 30.30 1026 10 16 0.00 0.00
9:51 am 09:51 Cloudy 59 15 54 12 82 82 NW 5 7 30.30 1026 10 16 0.00 0.00
10:51 am 10:51 Cloudy 59 15 54 12 82 82 N 6 9 30.28 1025 10 16 0.00 0.00
11:45 am 11:45 Cloudy 61 16 54 12 77 77 NE 5 7 30.24 1024 10 16 0.00 0.00
12:54 pm 12:54 Cloudy 63 17 55 13 77 77 Calm 30.21 1023 10 16 0.00 0.00
1:48 pm 13:48 Cloudy 64 18 55 13 73 73 ENE 5 7 30.18 1022 10 16 0.00 0.00
2:50 pm 14:50 Mostly Cloudy 64 18 57 14 77 77 Calm 30.16 1021 10 16 0.00 0.00
3:51 pm 15:51 Mostly Cloudy 64 18 57 14 77 77 Calm 30.15 1021 10 16 0.00 0.00
4:56 pm 16:56 Mostly Cloudy 64 18 57 14 77 77 Calm 30.14 1021 7 11 0.00 0.00
5:48 pm 17:48 Partly Cloudy 63 17 57 14 82 82 Calm 30.13 1020 10 16 0.00 0.00
6:47 pm 18:47 Cloudy 63 17 57 14 82 82 Calm 30.14 1021 10 16 0.00 0.00
7:46 pm 19:46 Cloudy 63 17 61 16 94 94 SSW 7 11 30.14 1021 10 16 0.00 0.00
8:51 pm 20:51 Cloudy with Mist and Fog 63 17 61 16 94 94 Calm 30.13 1020 5 8 0.00 0.00
9:52 pm 21:52 Cloudy with Mist and Fog 63 17 61 16 94 94 Calm 30.12 1020 5 8 0.00 0.00
10:15 pm 22:15 Cloudy with Mist and Fog 63 17.1 61 16.1 94 94 SSW 7 11 30.12 1020 2 2 0.00 0.00
10:35 pm 22:35 Cloudy with Fog 63 17.1 61 16.2 94 94 SSW 5 7 30.12 1020 0 0 0.00 0.00
10:55 pm 22:55 Cloudy with Fog 63 17.2 62 16.4 95 95 SSW 3 6 30.11 1020 0 0 0.00 0.00
11:15 pm 23:15 Cloudy with Fog 63 17.2 62 16.4 95 95 Calm 30.11 1020 0 0 0.00 0.00
11:35 pm 23:35 Cloudy with Fog 63 17.2 62 16.5 96 96 SSE 3 6 30.10 1019 0 0 0.00 0.00
11:55 pm 23:55 Cloudy with Mist and Fog 63 17.2 62 16.5 96 96 SSE 5 7 30.09 1019 1 2 0.00 0.00

Powered by AerisWeather